ATLAS 5 CENTAUR DEB, 44668

Orbit data source: Space-Track

ATLAS 5 CENTAUR DEB, 44668 is space debris in HEO originally from a launch on Wed, 17 Oct 2018 UTC launched from the Air Force Eastern Test Range (AFETR). Debris objects in space refer to the collection of defunct objects orbiting the Earth. Examples of debris include non-operational satellites, rocket bodies, and fragments generated from explosions, collisions, or faulty payload assembly.

Loading next visibility...
Identifier
44668, 2018-079AE
Orbit
HEO
Last TLE update
2 days ago
Origin
Manufacturer
ULA Decatur
Mission
Spacecraft
Bus & Motor
Unknown
Mass
Unknown
Launch date (UTC)
2018-10-17 (7 years ago)
Launch vehicle
Unknown
Launch site
Air Force Eastern Test Range (AFETR)
Object type
Payload
Rocket body
Debris
Shape & HBR
Unknown
Radar Cross Section
RCS unknown

Expand to show TLE details & history

TLE from 2 days ago
0 ATLAS 5 CENTAUR DEB
1 44668U 18079AE  25127.26498075 -.00000109  00000-0  00000-0 0  9992
2 44668  13.1377  38.7678 4548781 313.2822  16.8334  1.97455323 42818
Epoch: 2025-05-07T06:21Z
Definitive object data (Epoch: 2025-05-07T06:21:34.336Z)
Latitude
0.00002°
Longitude
77.98183°
Altitude
9,841.151 km
Speed
5.857 km/s
True Right ascension
02h 34m 54s
True Declination
0° 00' 00"
Sunlit
Object was in daylight at TLE epoch
Visualization TLE readout
Latitude
-5.84459°
Longitude
51.84547°
Altitude
8,530.769 km
Speed
6.215 km/s
Apparent Right ascension
01h 18m 54s
Apparent Declination
-16° 10' 25"
Sunlit
Object is in daylight
Visualization observer readout
Local Sidereal Time
14:47:16
Azimuth
45.303° ENE
Elevation
-59.461°
Doppler factor
1
Orbital elements
Apogee altitude
32,671.545 km
Perigee altitude
8,253.217 km
Semi-major axis
26,840.518 km
Eccentricity
0.4548781
Inclination
13.1377°
RAAN
38.7678°
Arg. of periapsis
313.2822°
True anomaly
46.95358°
Mean anomaly
16.8334°
Eccentric anomaly
29.77659°
Mean motion
0.49358 °/min
BSTAR
Unknown
Orbital period
729.37 mins
Loading maneuver chart data...
Loading SW <> Apogee altitude chart data...

ATLAS 5 CENTAUR DEB Visibility forecast

Observer location: undefined°, undefined°

Span
Click to sort rows by Start time (UTC) header in descending order
Start Az.
Max El. time (UTC)
Max El. Az.
Max El.
End time (UTC)
End Az.
611 mins2025-05-09 18:47:24.010Z220.761° SW2025-05-09 19:50:24.010Z147.762° SSE33.479°2025-05-10 04:58:24.010Z123.83° SE
|